• En España
  • Lista de países
  • Para 7 días
  • Temperatura del agua
  • Mapa Satelital
  • El tiempo en el mapa
  • Informadores
  • user-avatar
    Iniciar sesión

    Tiempo cada hora Ladnoe

    Hoy, 25 Septiembre, Martes

    Tiempo Temperatura Precipitaciones Viento Presión Humedad
    00:00 +4°C° 1.3 mm 6 mps 727 mmHg 93%
    01:00 +5°C° 1.3 mm 6 mps 727 mmHg 92%
    02:00 +5°C° 1.3 mm 7 mps 728 mmHg 91%
    03:00 +5°C° 0.6 mm 7 mps 728 mmHg 91%
    04:00 +4°C° 0.6 mm 7 mps 729 mmHg 90%
    05:00 +4°C° 0.6 mm 7 mps 730 mmHg 89%
    06:00 +4°C° 0.1 mm 6 mps 730 mmHg 88%
    07:00 +4°C° 0.1 mm 6 mps 731 mmHg 87%
    08:00 +4°C° 0.1 mm 6 mps 732 mmHg 86%
    09:00 +5°C° 0 mm 6 mps 733 mmHg 83%
    10:00 +5°C° 0 mm 6 mps 734 mmHg 81%
    11:00 +5°C° 0 mm 6 mps 735 mmHg 79%
    12:00 +7°C° 0 mm 6 mps 735 mmHg 76%
    13:00 +7°C° 0 mm 6 mps 736 mmHg 73%
    14:00 +7°C° 0 mm 6 mps 737 mmHg 70%
    15:00 +7°C° 0 mm 5 mps 737 mmHg 70%
    16:00 +7°C° 0 mm 5 mps 738 mmHg 70%
    17:00 +6°C° 0 mm 4 mps 739 mmHg 70%
    18:00 +5°C° 0 mm 4 mps 740 mmHg 73%
    19:00 +5°C° 0 mm 4 mps 740 mmHg 76%
    20:00 +4°C° 0 mm 4 mps 741 mmHg 78%
    21:00 +4°C° 0 mm 4 mps 742 mmHg 77%
    22:00 +3°C° 0 mm 4 mps 742 mmHg 76%
    23:00 +3°C° 0 mm 4 mps 743 mmHg 75%

    Mañana, 26 Septiembre, Miércoles

    Tiempo Temperatura Precipitaciones Viento Presión Humedad
    00:00 +3°C° 0 mm 4 mps 744 mmHg 75%
    01:00 +1°C° 0 mm 4 mps 744 mmHg 74%
    02:00 +1°C° 0 mm 4 mps 745 mmHg 73%
    03:00 +2°C° 0 mm 3 mps 745 mmHg 76%
    04:00 +1°C° 0 mm 3 mps 745 mmHg 78%
    05:00 +1°C° 0 mm 3 mps 746 mmHg 81%
    06:00 +2°C° 0 mm 3 mps 746 mmHg 80%
    07:00 +3°C° 0 mm 3 mps 746 mmHg 79%
    08:00 +4°C° 0 mm 3 mps 747 mmHg 78%
    09:00 +5°C° 0 mm 4 mps 747 mmHg 71%
    10:00 +7°C° 0 mm 4 mps 747 mmHg 65%
    11:00 +10°C° 0 mm 4 mps 746 mmHg 58%
    12:00 +10°C° 0 mm 4 mps 746 mmHg 55%
    13:00 +10°C° 0 mm 5 mps 745 mmHg 53%
    14:00 +10°C° 0 mm 5 mps 745 mmHg 50%
    15:00 +9°C° 0 mm 5 mps 744 mmHg 54%
    16:00 +9°C° 0 mm 5 mps 743 mmHg 58%
    17:00 +8°C° 0 mm 5 mps 742 mmHg 62%
    18:00 +7°C° 0.3 mm 5 mps 741 mmHg 68%
    19:00 +7°C° 0.3 mm 6 mps 740 mmHg 75%
    20:00 +5°C° 0.3 mm 7 mps 740 mmHg 82%
    21:00 +5°C° 1.3 mm 7 mps 738 mmHg 84%
    22:00 +5°C° 1.3 mm 7 mps 737 mmHg 87%
    23:00 +5°C° 1.3 mm 8 mps 735 mmHg 89%

    Pasado mañana, 27 Septiembre, Jueves

    Tiempo Temperatura Precipitaciones Viento Presión Humedad
    00:00 +5°C° 1 mm 8 mps 734 mmHg 89%
    01:00 +5°C° 1 mm 7 mps 733 mmHg 90%
    02:00 +6°C° 1 mm 7 mps 733 mmHg 90%
    03:00 +6°C° 1.4 mm 7 mps 732 mmHg 90%
    04:00 +7°C° 1.4 mm 6 mps 732 mmHg 91%
    05:00 +8°C° 1.4 mm 5 mps 732 mmHg 91%
    06:00 +8°C° 0.1 mm 5 mps 732 mmHg 88%
    07:00 +8°C° 0.1 mm 5 mps 733 mmHg 85%
    08:00 +7°C° 0.1 mm 5 mps 733 mmHg 83%
    09:00 +8°C° 0.1 mm 5 mps 733 mmHg 77%
    10:00 +9°C° 0.1 mm 6 mps 733 mmHg 71%
    11:00 +9°C° 0.1 mm 6 mps 734 mmHg 66%
    12:00 +9°C° 0.2 mm 6 mps 734 mmHg 65%
    13:00 +9°C° 0.2 mm 6 mps 734 mmHg 65%
    14:00 +9°C° 0.2 mm 7 mps 735 mmHg 64%
    15:00 +8°C° 0 mm 6 mps 735 mmHg 66%
    16:00 +8°C° 0 mm 5 mps 736 mmHg 68%
    17:00 +7°C° 0 mm 4 mps 736 mmHg 70%
    18:00 +7°C° 0 mm 4 mps 737 mmHg 72%
    19:00 +6°C° 0 mm 4 mps 737 mmHg 74%
    20:00 +5°C° 0 mm 3 mps 738 mmHg 75%
    21:00 +5°C° 0 mm 3 mps 738 mmHg 77%
    22:00 +5°C° 0 mm 3 mps 738 mmHg 78%
    23:00 +4°C° 0 mm 3 mps 738 mmHg 79%

    28 Septiembre, Viernes

    Tiempo Temperatura Precipitaciones Viento Presión Humedad
    00:00 +4°C° 0 mm 3 mps 738 mmHg 82%
    01:00 +3°C° 0 mm 3 mps 738 mmHg 84%
    02:00 +3°C° 0 mm 3 mps 737 mmHg 86%
    03:00 +4°C° 0.1 mm 3 mps 736 mmHg 84%
    04:00 +4°C° 0.1 mm 4 mps 735 mmHg 81%
    05:00 +5°C° 0.1 mm 4 mps 734 mmHg 79%
    06:00 +7°C° 0.7 mm 5 mps 733 mmHg 82%
    07:00 +8°C° 0.7 mm 6 mps 732 mmHg 86%
    08:00 +10°C° 0.7 mm 7 mps 730 mmHg 90%
    09:00 +10°C° 0.9 mm 7 mps 730 mmHg 88%
    10:00 +11°C° 0.9 mm 8 mps 729 mmHg 87%
    11:00 +12°C° 0.9 mm 8 mps 728 mmHg 86%
    12:00 +11°C° 0.9 mm 8 mps 729 mmHg 84%
    13:00 +11°C° 0.9 mm 7 mps 729 mmHg 81%
    14:00 +11°C° 0.9 mm 7 mps 729 mmHg 79%
    15:00 +9°C° 0.2 mm 6 mps 730 mmHg 81%
    16:00 +8°C° 0.2 mm 6 mps 731 mmHg 83%
    17:00 +6°C° 0.2 mm 5 mps 733 mmHg 85%
    18:00 +5°C° 0 mm 5 mps 734 mmHg 86%
    19:00 +4°C° 0 mm 4 mps 735 mmHg 88%
    20:00 +3°C° 0 mm 3 mps 737 mmHg 89%
    21:00 +2°C° 0 mm 3 mps 738 mmHg 91%
    22:00 +3°C° 0 mm 2 mps 738 mmHg 93%
    23:00 +2°C° 0 mm 2 mps 739 mmHg 96%

    29 Septiembre, Sábado

    Tiempo Temperatura Precipitaciones Viento Presión Humedad
    00:00 +2°C° 0 mm 2 mps 740 mmHg 96%
    01:00 +2°C° 0 mm 2 mps 740 mmHg 96%
    02:00 +3°C° 0 mm 1 mps 741 mmHg 97%
    03:00 +3°C° 0 mm 1 mps 741 mmHg 97%
    04:00 +2°C° 0 mm 1 mps 741 mmHg 96%
    05:00 +2°C° 0 mm 1 mps 741 mmHg 96%
    06:00 +3°C° 0.3 mm 1 mps 742 mmHg 94%
    07:00 +4°C° 0.3 mm 1 mps 742 mmHg 92%
    08:00 +5°C° 0.3 mm 1 mps 743 mmHg 90%
    09:00 +5°C° 0.3 mm 1 mps 743 mmHg 87%
    10:00 +6°C° 0.3 mm 1 mps 744 mmHg 84%
    11:00 +6°C° 0.3 mm 1 mps 744 mmHg 81%
    12:00 +6°C° 0.1 mm 2 mps 744 mmHg 77%
    13:00 +6°C° 0.1 mm 2 mps 745 mmHg 73%
    14:00 +7°C° 0.1 mm 2 mps 745 mmHg 69%
    15:00 +6°C° 0 mm 2 mps 745 mmHg 71%
    16:00 +5°C° 0 mm 2 mps 746 mmHg 74%
    17:00 +5°C° 0 mm 1 mps 746 mmHg 76%
    18:00 +4°C° 0 mm 1 mps 747 mmHg 78%
    19:00 +3°C° 0 mm 1 mps 747 mmHg 80%
    20:00 +2°C° 0 mm 1 mps 748 mmHg 81%
    21:00 +2°C° 0 mm 1 mps 748 mmHg 82%
    22:00 +2°C° 0 mm 1 mps 749 mmHg 82%
    23:00 +1°C° 0 mm 1 mps 749 mmHg 83%

    30 Septiembre, Domingo

    Tiempo Temperatura Precipitaciones Viento Presión Humedad
    00:00 +1°C° 0 mm 1 mps 749 mmHg 84%
    01:00 +1°C° 0 mm 1 mps 749 mmHg 85%
    02:00 +1°C° 0 mm 1 mps 750 mmHg 87%
    03:00 +1°C° 0 mm 1 mps 750 mmHg 88%
    04:00 +1°C° 0 mm 1 mps 750 mmHg 90%
    05:00 0°C° 0 mm 1 mps 750 mmHg 91%
    06:00 +1°C° 0 mm 2 mps 750 mmHg 87%
    07:00 +2°C° 0 mm 2 mps 750 mmHg 84%
    08:00 +3°C° 0 mm 2 mps 750 mmHg 80%
    09:00 +4°C° 0 mm 3 mps 750 mmHg 73%
    10:00 +5°C° 0 mm 3 mps 750 mmHg 66%
    11:00 +7°C° 0 mm 4 mps 749 mmHg 59%
    12:00 +7°C° 0 mm 4 mps 749 mmHg 57%
    13:00 +8°C° 0 mm 4 mps 749 mmHg 56%
    14:00 +8°C° 0 mm 4 mps 748 mmHg 54%
    15:00 +7°C° 0 mm 4 mps 748 mmHg 60%
    16:00 +7°C° 0 mm 3 mps 747 mmHg 66%
    17:00 +5°C° 0 mm 3 mps 747 mmHg 72%
    18:00 +5°C° 0 mm 3 mps 747 mmHg 73%
    19:00 +4°C° 0 mm 3 mps 747 mmHg 75%
    20:00 +4°C° 0 mm 3 mps 747 mmHg 76%
    21:00 +4°C° 0 mm 3 mps 746 mmHg 76%
    22:00 +4°C° 0 mm 4 mps 746 mmHg 76%
    23:00 +4°C° 0 mm 4 mps 746 mmHg 75%
    Mostrar más